Home   Weather   Richmond   Past weeks

Flag for Canada Past Weather in Richmond, British Columbia, Canada — Yesterday and Last 2 Weeks

Now
36 °F

Mostly cloudy.


Feels Like: 27 °F
Forecast: 34 / 42 °F
Wind: 13 mph from East

Location: Vancouver International Airport

Current Time: Feb 24, 2017 at 4:53:03 am

Latest Report: Feb 24, 2017 at 4:00 am


Visibility: 20 mi

Pressure: 30.13 "Hg

Humidity: 87%

Dew Point: 32 °F

Location of RichmondLocation

Past Weather in Richmond — Graph

°F

Richmond Temperature Yesterday

Maximum temperature yesterday: 43 °F (at 1:00 pm)
Minimum temperature yesterday: 32 °F (at 1:00 am)
Average temperature yesterday: 37 °F

High & Low Weather Summary for the Past Weeks

 TemperatureHumidityPressure
High54 °F (Feb 15, 8:00 pm)100% (Feb 9, 3:00 am)30.54 "Hg (Feb 9, 3:00 am)
Low30 °F (Feb 13, 6:00 am)58% (Feb 14, 1:00 pm)29.16 "Hg (Feb 9, 2:00 pm)
Average42 °F88%29.80 "Hg
* Reported Feb 9 3:00 am — Feb 24 3:00 am, Richmond, Weather by CustomWeather, © 2017

Note: Actual official high and low records may vary slightly from our data, if they occured in-between our weather recording intervals... More about our weather records

Advertising

Richmond Weather History for the Previous 24 Hours

Scroll right to see more
 ConditionsComfort  
Time TempWeatherWind HumidityBarometerVisibility
3:00 am
Fri, Feb 24
36 °FMostly cloudy.12 mph87%30.12 "Hg20 mi
2:00 am36 °FOvercast.10 mph87%30.13 "Hg20 mi
1:00 am36 °FPartly cloudy.9 mph87%30.13 "Hg20 mi
12:00 am36 °FOvercast.6 mph87%30.14 "Hg20 mi
11:00 pm
Thu, Feb 23
39 °FMostly cloudy.7 mph75%30.15 "Hg20 mi
10:00 pm39 °FMostly cloudy.6 mph75%30.16 "Hg20 mi
9:00 pm37 °FOvercast.5 mph81%30.16 "Hg15 mi
8:00 pm37 °FPartly cloudy.5 mph81%30.17 "Hg20 mi
7:00 pm37 °FPartly cloudy.2 mph81%30.18 "Hg20 mi
6:00 pm37 °FPassing clouds.5 mph81%30.19 "Hg30 mi
5:00 pm39 °FScattered clouds.6 mph75%30.20 "Hg30 mi
4:00 pm41 °FPassing clouds.7 mph70%30.20 "Hg30 mi
3:00 pm41 °FPassing clouds.6 mph70%30.22 "Hg30 mi
2:00 pm43 °FPassing clouds.8 mph66%30.24 "Hg30 mi
1:00 pm43 °FPassing clouds.14 mph71%30.25 "Hg30 mi
12:00 pm41 °FPassing clouds.12 mph70%30.27 "Hg30 mi
11:00 am39 °FPartly sunny.12 mph70%30.27 "Hg30 mi
10:00 am41 °FPartly sunny.2 mph70%30.27 "Hg30 mi
9:00 am36 °FPartly sunny.No wind87%30.27 "Hg30 mi
8:00 am32 °FScattered clouds.5 mph93%30.26 "Hg30 mi
7:00 am34 °FPassing clouds.2 mph93%30.25 "Hg30 mi
6:00 am34 °FPassing clouds.5 mph87%30.24 "Hg20 mi
5:00 am36 °FPassing clouds.2 mph87%30.24 "Hg20 mi
4:00 am36 °FPartly cloudy.2 mph87%30.23 "Hg20 mi
Weather by CustomWeather, © 2017

See weather overviewHow to use our weather pages